Weather History for Tulsa, OK

Change the Weather History Date:

Monday, September 29, 2014

  Actual Average Record
Temperature  
Mean Temperature 74 °F 67 °F  
Max Temperature 88 °F 78 °F 98 °F (1953)
Min Temperature 60 °F 56 °F 37 °F (1916)
Degree Days  
Heating Degree Days 0 2  
Month to date heating degree days 12 20  
Since 1 July heating degree days 13 20  
Cooling Degree Days 9 5  
Month to date cooling degree days 272 259  
Year to date cooling degree days 1925 1960  
Growing Degree Days 24 (Base 50)    
Moisture  
Dew Point 60 °F    
Average Humidity 66    
Maximum Humidity 97    
Minimum Humidity 35    
Precipitation  
Precipitation 0.00 in 0.13 in 4.45 in (1986)
Month to date precipitation 2.19 4.13  
Year to date precipitation 20.71 31.61  
Sea Level Pressure  
Sea Level Pressure 29.99 in    
Wind  
Wind Speed 5 mph (South)    
Max Wind Speed 12 mph    
Max Gust Speed 13 mph    
Visibility 9 miles    
Events      
T = Trace of Precipitation, MM = Missing Value Source: NWS Daily Summary

Daily Weather History Graph

Daily Weather History Graph

Search for Another Location

Airport:

Trip Planner

Search our weather history database for the weather conditions in past years. The results will help you decide how hot, cold, wet, or windy it might be!

Date:

Astronomy

Sep. 29, 2014 Rise Set
Actual Time 7:17 AM CDT 7:10 PM CDT
Civil Twilight 6:51 AM CDT 7:35 PM CDT
Nautical Twilight 6:21 AM CDT 8:05 PM CDT
Astronomical Twilight 5:51 AM CDT 8:35 PM CDT
Moon 12:22 PM CDT (9/29) 10:53 PM CDT (9/29)
Length of Visible Light 12h 44m
Length of Day
11h 52m
Waxing Crescent, 28% of the Moon is Illuminated
Sep 29
Waxing Crescent
Oct 1
First Quarter
Oct 8
Full
Oct 15
Last Quarter
Oct 23
New

Hourly Weather History & Observations

Time (CDT) Temp. Heat Index Dew Point Humidity Pressure Visibility Wind Dir Wind Speed Gust Speed Precip Events Conditions
12:53 AM 66.0 °F - 62.1 °F 87% 30.03 in 10.0 mi NW 3.5 mph - N/A   Clear
1:53 AM 68.0 °F - 62.1 °F 81% 30.02 in 8.0 mi Calm Calm - N/A   Clear
2:53 AM 64.4 °F - 60.8 °F 88% 30.04 in 9.0 mi Calm Calm - N/A   Clear
3:53 AM 64.0 °F - 61.0 °F 90% 30.02 in 8.0 mi WNW 4.6 mph - N/A   Clear
4:53 AM 61.0 °F - 59.0 °F 93% 30.03 in 9.0 mi NW 3.5 mph - N/A   Clear
5:53 AM 62.1 °F - 60.1 °F 93% 30.03 in 7.0 mi NW 3.5 mph - N/A   Clear
6:53 AM 62.1 °F - 59.0 °F 90% 30.04 in 7.0 mi Calm Calm - N/A   Clear
7:53 AM 62.1 °F - 60.1 °F 93% 30.06 in 4.0 mi NW 3.5 mph - N/A   Clear
8:53 AM 66.9 °F - 63.0 °F 87% 30.06 in 6.0 mi Calm Calm - N/A   Clear
9:53 AM 73.9 °F - 63.0 °F 68% 30.06 in 10.0 mi Calm Calm - N/A   Clear
10:53 AM 78.1 °F - 62.1 °F 58% 30.06 in 10.0 mi SE 3.5 mph - N/A   Clear
11:53 AM 82.0 °F 82.7 °F 61.0 °F 49% 30.04 in 10.0 mi SW 3.5 mph - N/A   Partly Cloudy
12:53 PM 84.9 °F 84.8 °F 60.1 °F 43% 30.02 in 10.0 mi Variable 3.5 mph - N/A   Scattered Clouds
1:53 PM 87.1 °F 86.5 °F 59.0 °F 39% 29.99 in 10.0 mi South 9.2 mph - N/A   Mostly Cloudy
2:53 PM 87.1 °F 86.1 °F 57.9 °F 37% 29.96 in 10.0 mi SE 9.2 mph - N/A   Mostly Cloudy
3:53 PM 87.1 °F 86.1 °F 57.9 °F 37% 29.94 in 10.0 mi Variable 5.8 mph - N/A   Mostly Cloudy
4:53 PM 86.0 °F 84.5 °F 55.0 °F 35% 29.93 in 10.0 mi South 6.9 mph - N/A   Scattered Clouds
5:53 PM 86.0 °F 84.9 °F 57.0 °F 37% 29.91 in 10.0 mi SE 9.2 mph - N/A   Partly Cloudy
6:53 PM 81.0 °F 81.0 °F 57.0 °F 44% 29.91 in 10.0 mi SE 6.9 mph - N/A   Partly Cloudy
7:53 PM 80.1 °F 80.6 °F 57.9 °F 47% 29.91 in 10.0 mi SSE 6.9 mph - N/A   Partly Cloudy
8:53 PM 78.1 °F - 59.0 °F 52% 29.91 in 10.0 mi SSE 5.8 mph - N/A   Partly Cloudy
9:53 PM 75.9 °F - 60.1 °F 58% 29.92 in 10.0 mi South 8.1 mph - N/A   Partly Cloudy
10:53 PM 71.1 °F - 60.1 °F 68% 29.92 in 10.0 mi SE 4.6 mph - N/A   Partly Cloudy
11:53 PM 71.1 °F - 60.1 °F 68% 29.92 in 10.0 mi SSE 5.8 mph - N/A   Scattered Clouds